| time (UTC) | temp F | wind direction | speed MPH | gust MPH | rain 1hr in | rain 24hr in | rain mn in | humidity % | barometer mb |
| 20260502200501 | 68 | 112 | 0.0 | 5.0 | 0.00 | 0.00 | 0.00 | 33 | 1017.6 |
| 20260502195959 | 68 | 311 | 3.0 | 5.0 | 0.00 | 0.00 | 0.00 | 34 | 1017.8 |
| 20260502195456 | 68 | 160 | 1.0 | 2.0 | 0.00 | 0.00 | 0.00 | 35 | 1017.6 |
| 20260502194952 | 67 | 282 | 2.0 | 4.0 | 0.00 | 0.00 | 0.00 | 39 | 1017.6 |
| 20260502194449 | 68 | 279 | 2.0 | 3.0 | 0.00 | 0.00 | 0.00 | 40 | 1017.6 |
| 20260502193944 | 67 | 0 | 0.0 | 2.0 | 0.00 | 0.00 | 0.00 | 39 | 1017.8 |
| 20260502193442 | 67 | 320 | 3.0 | 5.0 | 0.00 | 0.00 | 0.00 | 37 | 1018.0 |
| 20260502192937 | 66 | 85 | 3.0 | 3.0 | 0.00 | 0.00 | 0.00 | 41 | 1018.0 |
| 20260502192435 | 65 | 248 | 3.0 | 5.0 | 0.00 | 0.00 | 0.00 | 40 | 1018.0 |
| 20260502191931 | 65 | 291 | 3.0 | 4.0 | 0.00 | 0.00 | 0.00 | 42 | 1018.2 |
| 20260502191429 | 65 | 270 | 5.0 | 5.0 | 0.00 | 0.00 | 0.00 | 43 | 1018.1 |
| 20260502190927 | 64 | 248 | 4.0 | 5.0 | 0.00 | 0.00 | 0.00 | 43 | 1018.5 |
| 20260502190424 | 64 | 278 | 4.0 | 6.0 | 0.00 | 0.00 | 0.00 | 40 | 1018.5 |
| 20260502185920 | 64 | 0 | 3.0 | 5.0 | 0.00 | 0.00 | 0.00 | 40 | 1018.5 |
| 20260502185415 | 64 | 47 | 3.0 | 3.0 | 0.00 | 0.00 | 0.00 | 43 | 1018.6 |
| 20260502184913 | 63 | 255 | 2.0 | 4.0 | 0.00 | 0.00 | 0.00 | 40 | 1018.6 |
| 20260502184408 | 62 | 326 | 2.0 | 5.0 | 0.00 | 0.00 | 0.00 | 43 | 1018.7 |
| 20260502183905 | 62 | 263 | 3.0 | 4.0 | 0.00 | 0.00 | 0.00 | 41 | 1019.0 |
| 20260502183401 | 62 | 209 | 2.0 | 3.0 | 0.00 | 0.00 | 0.00 | 41 | 1019.2 |
| 20260502182856 | 60 | 10 | 3.0 | 4.0 | 0.00 | 0.00 | 0.00 | 43 | 1019.1 |
| 20260502182352 | 61 | 255 | 3.0 | 4.0 | 0.00 | 0.00 | 0.00 | 42 | 1019.1 |
| 20260502181849 | 60 | 327 | 3.0 | 4.0 | 0.00 | 0.00 | 0.00 | 42 | 1019.1 |
| 20260502181348 | 59 | 335 | 5.0 | 6.0 | 0.00 | 0.00 | 0.00 | 45 | 1018.9 |
| 20260502180845 | 59 | 32 | 3.0 | 7.0 | 0.00 | 0.00 | 0.00 | 45 | 1019.5 |
| 20260502180342 | 59 | 270 | 0.0 | 4.0 | 0.00 | 0.00 | 0.00 | 43 | 1019.2 |
| 20260502170301 | 55 | 346 | 0.0 | 3.0 | 0.00 | 0.00 | 0.00 | 50 | 1019.8 |
| 20260502164243 | 54 | 257 | 2.0 | 4.0 | 0.00 | 0.00 | 0.00 | 53 | 1019.9 |
| 20260502163738 | 53 | 90 | 3.0 | 4.0 | 0.00 | 0.00 | 0.00 | 51 | 1020.1 |
| 20260502163235 | 53 | 352 | 2.0 | 5.0 | 0.00 | 0.00 | 0.00 | 53 | 1019.9 |
| 20260502162732 | 53 | 338 | 3.0 | 5.0 | 0.00 | 0.00 | 0.00 | 53 | 1020.2 |
| 20260502162229 | 52 | 37 | 3.0 | 4.0 | 0.00 | 0.00 | 0.00 | 53 | 1020.0 |
| 20260502161726 | 52 | 353 | 1.0 | 5.0 | 0.00 | 0.00 | 0.00 | 53 | 1019.9 |
| 20260502161222 | 52 | 182 | 4.0 | 4.0 | 0.00 | 0.00 | 0.00 | 53 | 1020.2 |
| 20260502160721 | 52 | 289 | 0.0 | 3.0 | 0.00 | 0.00 | 0.00 | 55 | 1020.2 |
| 20260502160219 | 51 | 294 | 0.0 | 3.0 | 0.00 | 0.00 | 0.00 | 57 | 1020.2 |
| 20260502152143 | 50 | 342 | 1.0 | 2.0 | 0.00 | 0.00 | 0.00 | 59 | 1020.5 |
| 20260502151641 | 48 | 270 | 0.0 | 2.0 | 0.00 | 0.00 | 0.00 | 63 | 1020.3 |
| 20260502151138 | 48 | 21 | 0.0 | 2.0 | 0.00 | 0.00 | 0.00 | 62 | 1020.2 |
| 20260502150635 | 48 | 346 | 0.0 | 3.0 | 0.00 | 0.00 | 0.00 | 65 | 1020.6 |
| 20260502150131 | 47 | 174 | 0.0 | 3.0 | 0.00 | 0.00 | 0.00 | 64 | 1020.5 |
| 20260502130520 | 41 | 71 | 1.0 | 2.0 | 0.00 | 0.00 | 0.00 | 74 | 1020.3 |
| 20260502123503 | 41 | 106 | 4.0 | 5.0 | 0.00 | 0.00 | 0.00 | 73 | 1020.0 |
| 20260502123000 | 41 | 74 | 2.0 | 5.0 | 0.00 | 0.00 | 0.00 | 72 | 1020.0 |
| 20260502122456 | 41 | 97 | 4.0 | 5.0 | 0.00 | 0.00 | 0.00 | 72 | 1019.8 |
| 20260502121954 | 41 | 97 | 4.0 | 6.0 | 0.00 | 0.00 | 0.00 | 72 | 1019.9 |
| 20260502121451 | 42 | 101 | 3.0 | 5.0 | 0.00 | 0.00 | 0.00 | 71 | 1020.0 |
| 20260502120948 | 42 | 87 | 3.0 | 6.0 | 0.00 | 0.00 | 0.00 | 70 | 1019.8 |
| 20260502120444 | 42 | 110 | 4.0 | 6.0 | 0.00 | 0.00 | 0.00 | 71 | 1019.6 |
| 20260502115439 | 41 | 115 | 4.0 | 5.0 | 0.00 | 0.00 | 0.00 | 73 | 1019.8 |
| 20260502114935 | 40 | 113 | 4.0 | 5.0 | 0.00 | 0.00 | 0.00 | 74 | 1019.8 |
| 20260502114432 | 41 | 108 | 3.0 | 4.0 | 0.00 | 0.00 | 0.00 | 74 | 1019.9 |
| 20260502113929 | 40 | 109 | 2.0 | 3.0 | 0.00 | 0.00 | 0.00 | 75 | 1019.8 |
| 20260502113427 | 41 | 103 | 3.0 | 3.0 | 0.00 | 0.00 | 0.00 | 74 | 1019.9 |
| 20260502112925 | 41 | 71 | 3.0 | 4.0 | 0.00 | 0.00 | 0.00 | 73 | 1019.9 |
| 20260502112422 | 41 | 109 | 2.0 | 3.0 | 0.00 | 0.00 | 0.00 | 73 | 1019.9 |
| 20260502111920 | 42 | 118 | 3.0 | 4.0 | 0.00 | 0.00 | 0.00 | 72 | 1019.7 |
| 20260502111416 | 42 | 108 | 4.0 | 4.0 | 0.00 | 0.00 | 0.00 | 71 | 1019.8 |
| 20260502110914 | 42 | 103 | 3.0 | 3.0 | 0.00 | 0.00 | 0.00 | 71 | 1019.7 |
| 20260502110412 | 42 | 123 | 2.0 | 2.0 | 0.00 | 0.00 | 0.00 | 70 | 1019.7 |
| 20260502105909 | 43 | 105 | 0.0 | 2.0 | 0.00 | 0.00 | 0.00 | 68 | 1019.7 |
| 20260502105406 | 43 | 151 | 0.0 | 2.0 | 0.00 | 0.00 | 0.00 | 67 | 1019.6 |
| 20260502104904 | 45 | 90 | 1.0 | 4.0 | 0.00 | 0.00 | 0.00 | 64 | 1019.7 |
| 20260502104401 | 46 | 106 | 2.0 | 3.0 | 0.00 | 0.00 | 0.00 | 61 | 1019.6 |
| 20260502103858 | 45 | 45 | 2.0 | 5.0 | 0.00 | 0.00 | 0.00 | 64 | 1019.3 |
| 20260502103356 | 45 | 105 | 3.0 | 5.0 | 0.00 | 0.00 | 0.00 | 64 | 1019.6 |
| 20260502102852 | 45 | 101 | 3.0 | 5.0 | 0.00 | 0.00 | 0.00 | 64 | 1019.2 |
| 20260502102349 | 45 | 115 | 4.0 | 7.0 | 0.00 | 0.00 | 0.00 | 65 | 1019.6 |
| 20260502101846 | 45 | 101 | 7.0 | 7.0 | 0.00 | 0.00 | 0.00 | 66 | 1019.1 |
| 20260502101345 | 44 | 106 | 5.0 | 8.0 | 0.00 | 0.00 | 0.00 | 67 | 1019.5 |
| 20260502100843 | 44 | 123 | 4.0 | 7.0 | 0.00 | 0.00 | 0.00 | 68 | 1019.3 |
| 20260502100342 | 44 | 105 | 5.0 | 8.0 | 0.00 | 0.00 | 0.00 | 68 | 1019.1 |
| 20260502091315 | 45 | 127 | 2.0 | 2.0 | 0.00 | 0.00 | 0.00 | 65 | 1019.2 |
| 20260502090813 | 46 | 103 | 3.0 | 5.0 | 0.00 | 0.00 | 0.00 | 63 | 1019.0 |
| 20260502090309 | 45 | 110 | 4.0 | 4.0 | 0.00 | 0.00 | 0.00 | 65 | 1019.3 |
| 20260502071205 | 48 | 97 | 3.0 | 3.0 | 0.00 | 0.00 | 0.00 | 61 | 1018.8 |
| 20260502070703 | 48 | 115 | 2.0 | 3.0 | 0.00 | 0.00 | 0.00 | 61 | 1018.8 |
| 20260502070200 | 49 | 119 | 2.0 | 3.0 | 0.00 | 0.00 | 0.00 | 58 | 1018.8 |
| 20260502065659 | 49 | 97 | 3.0 | 3.0 | 0.00 | 0.00 | 0.00 | 58 | 1018.8 |
| 20260502065156 | 49 | 90 | 2.0 | 2.0 | 0.00 | 0.00 | 0.00 | 57 | 1018.7 |
| 20260502064655 | 49 | 86 | 3.0 | 3.0 | 0.00 | 0.00 | 0.00 | 57 | 1018.5 |
| 20260502064151 | 50 | 135 | 2.0 | 3.0 | 0.00 | 0.00 | 0.00 | 57 | 1018.7 |
| 20260502063649 | 49 | 103 | 2.0 | 3.0 | 0.00 | 0.00 | 0.00 | 59 | 1018.6 |
| 20260502063147 | 49 | 93 | 3.0 | 4.0 | 0.00 | 0.00 | 0.00 | 59 | 1018.1 |
| 20260502062643 | 50 | 99 | 3.0 | 3.0 | 0.00 | 0.00 | 0.00 | 58 | 1018.5 |
| 20260502062141 | 49 | 115 | 2.0 | 3.0 | 0.00 | 0.00 | 0.00 | 60 | 1018.3 |
| 20260502061639 | 50 | 130 | 3.0 | 3.0 | 0.00 | 0.00 | 0.00 | 57 | 1018.6 |
| 20260502061137 | 51 | 99 | 3.0 | 4.0 | 0.00 | 0.00 | 0.00 | 55 | 1018.1 |
| 20260502060636 | 50 | 139 | 2.0 | 3.0 | 0.00 | 0.00 | 0.00 | 57 | 1018.1 |
| 20260502060133 | 50 | 108 | 3.0 | 4.0 | 0.00 | 0.00 | 0.00 | 55 | 1017.9 |
| 20260502055631 | 51 | 93 | 3.0 | 7.0 | 0.00 | 0.00 | 0.00 | 53 | 1018.1 |
| 20260502055129 | 52 | 115 | 3.0 | 8.0 | 0.00 | 0.00 | 0.00 | 52 | 1018.2 |
| 20260502054628 | 51 | 90 | 4.0 | 6.0 | 0.00 | 0.00 | 0.00 | 53 | 1018.0 |
| 20260502054125 | 51 | 77 | 3.0 | 5.0 | 0.00 | 0.00 | 0.00 | 53 | 1017.8 |
| 20260502053622 | 51 | 105 | 4.0 | 5.0 | 0.00 | 0.00 | 0.00 | 53 | 1018.1 |
| 20260502053119 | 51 | 97 | 3.0 | 4.0 | 0.00 | 0.00 | 0.00 | 54 | 1018.0 |
| 20260502052617 | 51 | 117 | 1.0 | 3.0 | 0.00 | 0.00 | 0.00 | 56 | 1017.9 |
| 20260502052115 | 52 | 104 | 3.0 | 3.0 | 0.00 | 0.00 | 0.00 | 52 | 1018.0 |
| 20260502051613 | 52 | 77 | 3.0 | 5.0 | 0.00 | 0.00 | 0.00 | 50 | 1017.9 |
| 20260502051111 | 52 | 103 | 4.0 | 4.0 | 0.00 | 0.00 | 0.00 | 52 | 1017.9 |
| 20260502050607 | 53 | 94 | 3.0 | 4.0 | 0.00 | 0.00 | 0.00 | 49 | 1017.7 |
| 20260502050104 | 53 | 145 | 1.0 | 2.0 | 0.00 | 0.00 | 0.00 | 50 | 1017.9 |
| 20260502045600 | 53 | 132 | 2.0 | 3.0 | 0.00 | 0.00 | 0.00 | 51 | 1017.7 |
| 20260502045058 | 53 | 113 | 3.0 | 4.0 | 0.00 | 0.00 | 0.00 | 49 | 1017.7 |
| 20260502044554 | 53 | 127 | 3.0 | 4.0 | 0.00 | 0.00 | 0.00 | 49 | 1017.7 |
| 20260502044051 | 53 | 113 | 3.0 | 4.0 | 0.00 | 0.00 | 0.00 | 48 | 1017.8 |
| 20260502043548 | 54 | 106 | 2.0 | 4.0 | 0.00 | 0.00 | 0.00 | 47 | 1017.8 |
| 20260502043044 | 54 | 134 | 4.0 | 5.0 | 0.00 | 0.00 | 0.00 | 48 | 1017.7 |
| 20260502042539 | 55 | 96 | 5.0 | 8.0 | 0.00 | 0.00 | 0.00 | 45 | 1017.6 |
| 20260502042037 | 55 | 102 | 8.0 | 9.0 | 0.00 | 0.00 | 0.00 | 45 | 1017.4 |
| 20260502041535 | 55 | 106 | 5.0 | 7.0 | 0.00 | 0.00 | 0.00 | 46 | 1017.5 |
| 20260502041031 | 55 | 110 | 4.0 | 10.0 | 0.00 | 0.00 | 0.00 | 46 | 1017.6 |
| 20260502040528 | 54 | 111 | 7.0 | 11.0 | 0.00 | 0.00 | 0.00 | 45 | 1017.6 |
| 20260502040025 | 55 | 83 | 4.0 | 5.0 | 0.00 | 0.00 | 0.00 | 47 | 1017.6 |
| 20260502035521 | 56 | 87 | 3.0 | 5.0 | 0.00 | 0.00 | 0.00 | 45 | 1017.4 |
| 20260502035019 | 56 | 108 | 5.0 | 5.0 | 0.00 | 0.00 | 0.00 | 45 | 1017.4 |
| 20260502034516 | 56 | 95 | 5.0 | 6.0 | 0.00 | 0.00 | 0.00 | 44 | 1017.4 |
| 20260502034015 | 57 | 69 | 3.0 | 6.0 | 0.00 | 0.00 | 0.00 | 43 | 1017.2 |
| 20260502033513 | 56 | 90 | 4.0 | 6.0 | 0.00 | 0.00 | 0.00 | 44 | 1017.2 |
| 20260502033010 | 57 | 105 | 4.0 | 11.0 | 0.00 | 0.00 | 0.00 | 45 | 1017.2 |
| 20260502032505 | 58 | 97 | 3.0 | 7.0 | 0.00 | 0.00 | 0.00 | 42 | 1017.1 |
| 20260502032003 | 58 | 98 | 5.0 | 6.0 | 0.00 | 0.00 | 0.00 | 43 | 1016.9 |
| 20260502031500 | 59 | 117 | 5.0 | 8.0 | 0.00 | 0.00 | 0.00 | 42 | 1017.0 |
| 20260502030958 | 60 | 103 | 6.0 | 9.0 | 0.00 | 0.00 | 0.00 | 40 | 1016.8 |
| 20260502030456 | 59 | 112 | 5.0 | 7.0 | 0.00 | 0.00 | 0.00 | 40 | 1016.9 |
| 20260502025954 | 60 | 74 | 3.0 | 7.0 | 0.00 | 0.00 | 0.00 | 42 | 1016.7 |
| 20260502025451 | 61 | 119 | 5.0 | 7.0 | 0.00 | 0.00 | 0.00 | 40 | 1016.7 |
| 20260502024949 | 61 | 114 | 5.0 | 7.0 | 0.00 | 0.00 | 0.00 | 39 | 1016.7 |
| 20260502024447 | 61 | 124 | 4.0 | 6.0 | 0.00 | 0.00 | 0.00 | 40 | 1016.6 |
| 20260502023945 | 62 | 110 | 4.0 | 5.0 | 0.00 | 0.00 | 0.00 | 41 | 1016.6 |
| 20260502023442 | 63 | 105 | 5.0 | 6.0 | 0.00 | 0.00 | 0.00 | 38 | 1016.6 |
| 20260502022939 | 62 | 106 | 3.0 | 3.0 | 0.00 | 0.00 | 0.00 | 40 | 1016.7 |
| 20260502022435 | 63 | 118 | 3.0 | 4.0 | 0.00 | 0.00 | 0.00 | 38 | 1016.6 |
| 20260502021932 | 64 | 83 | 3.0 | 4.0 | 0.00 | 0.00 | 0.00 | 37 | 1016.5 |
| 20260502021430 | 66 | 106 | 3.0 | 3.0 | 0.00 | 0.00 | 0.00 | 35 | 1016.1 |
| 20260502020927 | 68 | 99 | 0.0 | 1.0 | 0.00 | 0.00 | 0.00 | 32 | 1016.4 |
| 20260502020425 | 69 | 278 | 0.0 | 0.0 | 0.00 | 0.00 | 0.00 | 31 | 1016.2 |
| 20260502015921 | 71 | 278 | 0.0 | 0.0 | 0.00 | 0.00 | 0.00 | 30 | 1016.5 |
| 20260502015419 | 71 | 289 | 1.0 | 3.0 | 0.00 | 0.00 | 0.00 | 27 | 1016.5 |
| 20260502014915 | 71 | 289 | 3.0 | 5.0 | 0.00 | 0.00 | 0.00 | 26 | 1016.1 |
| 20260502014413 | 72 | 270 | 2.0 | 4.0 | 0.00 | 0.00 | 0.00 | 26 | 1016.5 |
| 20260502013909 | 72 | 252 | 3.0 | 3.0 | 0.00 | 0.00 | 0.00 | 26 | 1016.6 |
| 20260502013404 | 72 | 270 | 2.0 | 3.0 | 0.00 | 0.00 | 0.00 | 26 | 1016.5 |
| 20260502012901 | 73 | 296 | 3.0 | 4.0 | 0.00 | 0.00 | 0.00 | 26 | 1016.6 |
| 20260502012359 | 73 | 281 | 3.0 | 4.0 | 0.00 | 0.00 | 0.00 | 25 | 1016.6 |
| 20260502011856 | 74 | 289 | 3.0 | 3.0 | 0.00 | 0.00 | 0.00 | 25 | 1016.6 |
| 20260502011352 | 74 | 260 | 0.0 | 3.0 | 0.00 | 0.00 | 0.00 | 24 | 1016.6 |
| 20260502010849 | 74 | 286 | 0.0 | 4.0 | 0.00 | 0.00 | 0.00 | 24 | 1016.7 |
| 20260502010346 | 74 | 261 | 0.0 | 2.0 | 0.00 | 0.00 | 0.00 | 25 | 1016.7 |
| 20260502005843 | 74 | 335 | 4.0 | 4.0 | 0.00 | 0.00 | 0.00 | 25 | 1016.7 |
| 20260502005341 | 74 | 346 | 3.0 | 3.0 | 0.00 | 0.00 | 0.00 | 27 | 1016.7 |
| 20260502004838 | 73 | 345 | 2.0 | 5.0 | 0.00 | 0.00 | 0.00 | 25 | 1016.6 |
| 20260502004333 | 74 | 279 | 2.0 | 4.0 | 0.00 | 0.00 | 0.00 | 27 | 1016.5 |
| 20260502003832 | 74 | 315 | 4.0 | 5.0 | 0.00 | 0.00 | 0.00 | 26 | 1016.9 |
| 20260502003328 | 74 | 225 | 2.0 | 3.0 | 0.00 | 0.00 | 0.00 | 26 | 1016.6 |
| 20260502002825 | 74 | 289 | 2.0 | 4.0 | 0.00 | 0.00 | 0.00 | 27 | 1016.7 |
| 20260502002322 | 73 | 123 | 0.0 | 5.0 | 0.00 | 0.00 | 0.00 | 25 | 1016.8 |
| 20260502001819 | 73 | 326 | 3.0 | 4.0 | 0.00 | 0.00 | 0.00 | 25 | 1016.9 |
| 20260502001317 | 74 | 191 | 4.0 | 5.0 | 0.00 | 0.00 | 0.00 | 24 | 1016.7 |
| 20260502000814 | 75 | 232 | 4.0 | 4.0 | 0.00 | 0.00 | 0.00 | 25 | 1016.8 |
| 20260502000312 | 74 | 355 | 0.0 | 2.0 | 0.00 | 0.00 | 0.00 | 28 | 1016.7 |
| 20260501235808 | 73 | 77 | 2.0 | 4.0 | 0.00 | 0.00 | 0.00 | 25 | 1016.8 |
| 20260501235305 | 73 | 283 | 1.0 | 3.0 | 0.00 | 0.00 | 0.00 | 24 | 1016.9 |
| 20260501234759 | 73 | 352 | 0.0 | 4.0 | 0.00 | 0.00 | 0.00 | 26 | 1016.9 |
| 20260501234257 | 73 | 3 | 2.0 | 5.0 | 0.00 | 0.00 | 0.00 | 26 | 1017.1 |
| 20260501233755 | 72 | 324 | 2.0 | 6.0 | 0.00 | 0.00 | 0.00 | 26 | 1017.1 |
| 20260501233252 | 73 | 303 | 3.0 | 5.0 | 0.00 | 0.00 | 0.00 | 27 | 1017.1 |
| 20260501232748 | 73 | 353 | 3.0 | 6.0 | 0.00 | 0.00 | 0.00 | 26 | 1017.0 |
| 20260501232245 | 74 | 276 | 2.0 | 4.0 | 0.00 | 0.00 | 0.00 | 27 | 1017.2 |
| 20260501231743 | 73 | 321 | 3.0 | 5.0 | 0.00 | 0.00 | 0.00 | 28 | 1017.2 |
| 20260501231241 | 72 | 350 | 3.0 | 9.0 | 0.00 | 0.00 | 0.00 | 26 | 1017.1 |
| 20260501230739 | 73 | 0 | 0.0 | 6.0 | 0.00 | 0.00 | 0.00 | 27 | 1016.9 |
| 20260501230237 | 71 | 262 | 5.0 | 10.0 | 0.00 | 0.00 | 0.00 | 26 | 1017.4 |
| 20260501225734 | 73 | 335 | 3.0 | 5.0 | 0.00 | 0.00 | 0.00 | 27 | 1017.4 |
| 20260501225231 | 72 | 354 | 0.0 | 5.0 | 0.00 | 0.00 | 0.00 | 27 | 1017.5 |
| 20260501224727 | 72 | 350 | 3.0 | 5.0 | 0.00 | 0.00 | 0.00 | 26 | 1017.4 |
| 20260501224225 | 72 | 333 | 4.0 | 5.0 | 0.00 | 0.00 | 0.00 | 27 | 1017.6 |
| 20260501223721 | 73 | 293 | 4.0 | 5.0 | 0.00 | 0.00 | 0.00 | 28 | 1017.5 |
| 20260501223218 | 73 | 283 | 4.0 | 5.0 | 0.00 | 0.00 | 0.00 | 28 | 1017.8 |
| 20260501222714 | 71 | 13 | 3.0 | 8.0 | 0.00 | 0.00 | 0.00 | 26 | 1017.9 |
| 20260501222211 | 72 | 327 | 7.0 | 7.0 | 0.00 | 0.00 | 0.00 | 27 | 1017.8 |
| 20260501221708 | 71 | 17 | 2.0 | 7.0 | 0.00 | 0.00 | 0.00 | 29 | 1017.7 |
| 20260501221205 | 71 | 11 | 3.0 | 5.0 | 0.00 | 0.00 | 0.00 | 27 | 1017.8 |
| 20260501220703 | 70 | 51 | 5.0 | 6.0 | 0.00 | 0.00 | 0.00 | 26 | 1018.0 |
| 20260501220200 | 72 | 339 | 3.0 | 5.0 | 0.00 | 0.00 | 0.00 | 28 | 1018.0 |
| 20260501215657 | 71 | 57 | 2.0 | 3.0 | 0.00 | 0.00 | 0.00 | 27 | 1018.1 |
| 20260501215152 | 71 | 78 | 3.0 | 3.0 | 0.00 | 0.00 | 0.00 | 29 | 1018.1 |
| 20260501214647 | 69 | 98 | 0.0 | 5.0 | 0.00 | 0.00 | 0.00 | 27 | 1018.3 |
| 20260501214143 | 70 | 330 | 5.0 | 9.0 | 0.00 | 0.00 | 0.00 | 28 | 1018.3 |
| 20260501213640 | 69 | 96 | 1.0 | 9.0 | 0.00 | 0.00 | 0.00 | 28 | 1018.5 |
| 20260501213136 | 70 | 338 | 4.0 | 10.0 | 0.00 | 0.00 | 0.00 | 28 | 1018.6 |
| 20260501212633 | 70 | 284 | 3.0 | 4.0 | 0.00 | 0.00 | 0.00 | 29 | 1018.3 |
| 20260501212129 | 69 | 51 | 3.0 | 6.0 | 0.00 | 0.00 | 0.00 | 28 | 1018.8 |
| 20260501211626 | 70 | 80 | 3.0 | 5.0 | 0.00 | 0.00 | 0.00 | 28 | 1018.9 |
| 20260501211124 | 68 | 18 | 7.0 | 9.0 | 0.00 | 0.00 | 0.00 | 28 | 1018.8 |
| 20260501210620 | 68 | 296 | 3.0 | 7.0 | 0.00 | 0.00 | 0.00 | 29 | 1018.7 |
| 20260501210117 | 69 | 305 | 6.0 | 9.0 | 0.00 | 0.00 | 0.00 | 29 | 1018.9 |
| 20260501205613 | 70 | 319 | 2.0 | 3.0 | 0.00 | 0.00 | 0.00 | 30 | 1018.9 |
| 20260501205111 | 69 | 94 | 3.0 | 3.0 | 0.00 | 0.00 | 0.00 | 30 | 1019.1 |
| 20260501204607 | 68 | 198 | 1.0 | 5.0 | 0.00 | 0.00 | 0.00 | 28 | 1019.3 |
| 20260501204103 | 68 | 80 | 2.0 | 5.0 | 0.00 | 0.00 | 0.00 | 28 | 1019.2 |
| 20260501203600 | 67 | 222 | 3.0 | 5.0 | 0.00 | 0.00 | 0.00 | 32 | 1019.3 |
| 20260501203058 | 68 | 234 | 7.0 | 7.0 | 0.00 | 0.00 | 0.00 | 30 | 1019.5 |
| 20260501202554 | 68 | 270 | 2.0 | 3.0 | 0.00 | 0.00 | 0.00 | 31 | 1019.5 |
| 20260501202051 | 68 | 66 | 1.0 | 5.0 | 0.00 | 0.00 | 0.00 | 29 | 1019.5 |
| 20260501201548 | 66 | 270 | 4.0 | 6.0 | 0.00 | 0.00 | 0.00 | 34 | 1019.7 |
| 20260501201044 | 66 | 202 | 5.0 | 10.0 | 0.00 | 0.00 | 0.00 | 30 | 1019.5 |